OBJECT C, 56745

Orbit data source: Space-Track

You're viewing an Uncataloged Satellite

Recently launched and/or uncataloged satellites may have evolving metadata. Metadata may include but not limited to: Owner, Maufacturer, Bus, Motor, and Mission.

OBJECT C, 56745 is a satellite owned by KASI (KR) in SSO that was launched on Thu, 25 May 2023 UTC via an NURI launch vehicle from the Naro Space Center, South Korea (NSC). Unknown objects in Earth's orbit typically refer to objects detected orbiting the Earth but have not yet been identified or cataloged. These objects could be anything from previously untracked satellites, spent rocket stages, debris from satellite collisions, or even natural meteoroids temporarily captured by Earth's gravity.

Loading next visibility...
Identifier
56745, 2023-072C
Orbit
SSO
Country
Flag of UnknownUnknown / SKOR
Related business
Flag of KRKorea Astronomy and Space Science Institute (KR)
Manufacturer
KASI
Mission
Operational Civil Ast/Sci
Bus & Motor
CUBESAT 6U, Unknown motor
Mass
10 kg wet, 10 kg dry
Launch date (UTC)
2023-05-25 (3 years ago)
Launch vehicle
NURI
Launch site
Naro Space Center, South Korea (NSC)
Object type
Unknown
Shape & HBR
Box + 2 Pan, 0.3 m
Radar Cross Section
0.054 m², Medium (>0.1 m² and < 1m²)

Expand to show TLE details & history
Last TLE update: 14 hours ago

TLE from 14 hours ago
0 OBJECT C
1 56745U 23072C   26034.63503628  .00030362  00000-0  76705-3 0  9991
2 56745  97.5365 239.0934 0005932 108.6437 251.5453 15.39744478149643
Epoch: 2026-02-03T15:14Z
TLE epoch observation values (Epoch: 2026-02-03T15:14:27.134Z)
Latitude
-0.00003°
Longitude
-123.3328°
Altitude
451.262 km
Speed
7.641 km/s
True Right ascension
15h 56m 22s
True Declination
0° 00' 00"
Sunlit
Object was in daylight at epoch
Visualization orbit readout
Latitude
Unknown
Longitude
Unknown
Altitude
Unknown
Speed
Unknown
Apparent Right ascension
Unknown
Apparent Declination
Unknown
Sunlit
N/A
Visualization observer readout
Local Sidereal Time
07:14:12
Azimuth
Unknown
Elevation
Unknown
Doppler factor
Unknown
Orbital elements
Apogee altitude
447.856 km
Perigee altitude
439.763 km
Semi-major axis
6,821.947 km
Eccentricity
0.00059
Inclination
97.5365°
RAAN
239.0934°
Arg. of periapsis
108.6437°
True anomaly
251.48084°
Mean anomaly
251.5453°
Eccentric anomaly
251.51307°
Mean motion
3.85195 °/min
Orbital period
93.46 mins
BSTAR
0.00076705
Loading maneuver chart data...
Computing Atmospheric mass density...
Loading historical data...
Loading historical data...
Loading historical data...
Loading historical data...
Loading historical data...
Loading historical data...
Loading historical data...

Documentation

Showing up to 5 results
|